Date,TemperatureHighF,TemperatureAvgF,TemperatureLowF,DewpointHighF,DewpointAvgF,DewpointLowF,HumidityHigh,HumidityAvg,HumidityLow,PressureMaxIn,PressureMinIn,WindSpeedMaxMPH,WindSpeedAvgMPH,GustSpeedMaxMPH,PrecipitationSumIn
2013-1-1,17.0,9.1,0.0,13.0,3.6,-4.0,86,78,59,30.29,30.07,4,2,12,0.00
2013-1-2,22.0,18.9,17.0,17.0,14.8,13.0,88,84,79,30.08,30.00,4,1,10,0.00
2013-1-3,25.0,20.8,17.0,20.0,14.4,9.0,87,76,59,30.19,29.91,6,2,17,0.00
2013-1-4,37.0,23.7,17.0,23.0,16.9,13.0,89,76,56,30.17,29.91,5,2,17,0.01
2013-1-5,29.0,18.9,8.0,25.0,14.8,5.0,91,84,70,30.17,29.89,1,0,8,0.01
2013-1-6,29.0,24.7,17.0,24.0,18.7,11.0,85,78,66,30.20,29.96,2,0,7,0.00
2013-1-7,40.0,30.8,17.0,27.0,22.1,10.0,78,70,59,30.07,29.78,6,3,17,0.03
2013-1-8,37.0,27.7,16.0,31.0,23.5,14.0,93,84,75,30.04,29.72,5,1,16,0.01
2013-1-9,36.0,32.9,24.0,30.0,25.3,19.0,82,73,63,30.36,29.76,8,3,22,0.01
2013-1-10,45.0,32.9,16.0,34.0,19.9,14.0,95,63,32,30.38,29.79,6,1,16,0.43
2013-1-11,42.0,35.8,33.0,41.0,34.9,32.0,98,97,95,29.81,29.38,1,0,4,0.46
2013-1-12,43.0,27.8,16.0,42.0,23.1,10.0,97,82,71,30.04,29.33,8,3,20,0.01
2013-1-13,16.0,12.1,9.0,10.0,7.1,4.0,86,80,72,30.20,30.03,3,1,11,0.00
2013-1-14,13.0,9.1,5.0,6.0,3.8,1.0,84,79,68,30.41,30.20,3,1,12,0.00
2013-1-15,29.0,19.7,8.0,20.0,11.3,4.0,82,70,52,30.38,29.80,5,2,15,0.00
2013-1-16,31.0,24.7,10.0,26.0,16.9,1.0,90,72,56,30.23,29.57,7,3,20,0.00
2013-1-17,13.0,7.7,4.0,3.0,0.3,-3.0,78,71,60,30.43,30.23,4,1,9,0.00
2013-1-18,22.0,15.2,4.0,18.0,11.5,-2.0,91,85,76,30.38,29.81,2,0,5,0.00
2013-1-19,33.0,21.0,7.0,30.0,17.4,1.0,91,86,76,30.11,29.57,7,2,21,0.01
2013-1-20,6.0,2.7,0.0,1.0,-3.3,-6.0,82,76,67,30.35,30.10,4,2,13,0.01
2013-1-21,0.0,-5.3,-8.0,-4.0,-10.9,-14.0,82,76,65,30.33,30.23,5,2,13,0.00
2013-1-22,1.0,-5.7,-15.0,-8.0,-12.7,-20.0,81,71,58,30.44,30.30,4,1,10,0.00
2013-1-23,11.0,1.6,-7.0,6.0,-3.3,-13.0,83,79,71,30.65,30.17,4,2,16,0.00
2013-1-24,9.0,-0.1,-13.0,5.0,-5.1,-17.0,87,79,70,30.76,30.28,1,0,4,0.00
2013-1-25,22.0,14.8,8.0,15.0,9.8,5.0,87,80,69,30.29,29.98,4,1,9,0.06
2013-1-26,22.0,15.3,7.0,16.0,9.6,3.0,85,78,68,30.42,30.24,2,0,6,0.02
2013-1-27,31.0,22.9,13.0,30.0,19.0,9.0,95,85,74,30.25,29.90,1,0,3,0.00
2013-1-28,37.0,30.1,25.0,32.0,28.1,23.0,96,92,79,29.94,29.72,1,0,3,0.01
2013-1-29,36.0,32.3,28.0,33.0,30.0,25.0,97,91,80,29.75,29.54,3,1,9,0.07
2013-1-30,30.0,21.1,13.0,25.0,16.4,9.0,86,82,76,29.74,29.61,5,2,11,0.01
2013-1-31,13.0,9.4,5.0,9.0,3.7,0.0,84,77,71,30.17,29.65,4,2,14,0.00
2013-2-1,5.0,-2.9,-13.0,0.0,-11.3,-19.0,78,67,56,30.32,30.17,4,2,10,0.00
2013-2-2,14.0,6.0,-3.0,2.0,-2.4,-8.0,83,68,54,30.24,30.02,3,1,7,0.00
2013-2-3,12.0,8.4,3.0,6.0,1.1,-3.0,84,72,59,30.09,29.97,4,2,12,0.00
2013-2-4,15.0,5.3,-7.0,1.0,-4.3,-11.0,85,66,40,30.12,29.85,3,1,8,0.00
2013-2-5,23.0,15.2,5.0,15.0,9.8,1.0,90,79,62,30.12,29.71,3,1,8,0.01
2013-2-6,23.0,15.5,4.0,22.0,11.9,1.0,94,85,69,30.19,30.11,2,0,6,0.01
2013-2-7,29.0,25.1,23.0,24.0,22.1,18.0,94,88,79,30.35,30.16,4,1,12,0.00
2013-2-8,23.0,16.9,7.0,19.0,13.1,2.0,90,85,75,30.46,30.33,2,0,7,0.00
2013-2-9,27.0,18.4,3.0,23.0,14.8,0.0,90,86,79,30.34,30.08,5,1,12,0.00
2013-2-10,33.0,28.5,25.0,32.0,26.3,22.0,97,92,85,30.08,29.34,4,1,12,0.00
2013-2-11,33.0,28.5,23.0,32.0,25.9,19.0,97,90,80,29.97,29.33,3,1,11,0.00
2013-2-12,32.0,25.1,17.0,26.0,20.7,14.0,89,83,74,30.00,29.73,4,2,11,0.01
2013-2-13,42.0,30.9,24.0,31.0,25.4,20.0,91,80,63,29.74,29.62,4,1,11,0.35
2013-2-14,31.0,23.8,15.0,26.0,18.9,9.0,94,81,66,30.13,29.69,4,1,13,0.01
2013-2-15,18.0,14.2,10.0,11.0,6.9,4.0,86,73,58,30.28,30.13,3,1,10,0.01
2013-2-16,17.0,8.8,-4.0,8.0,3.1,-8.0,87,78,57,30.26,30.22,2,0,6,0.00
2013-2-17,30.0,12.0,-10.0,16.0,3.1,-14.0,87,69,50,30.23,29.81,6,2,14,0.00
2013-2-18,34.0,27.7,21.0,28.0,22.3,16.0,92,80,66,29.81,29.52,3,1,11,0.01
2013-2-19,21.0,10.3,5.0,17.0,4.5,-1.0,84,77,70,30.33,29.66,5,2,13,0.01
2013-2-20,19.0,11.1,0.0,10.0,5.8,-3.0,87,79,66,30.55,30.33,3,1,12,0.00
2013-2-21,25.0,15.2,0.0,21.0,11.2,-3.0,89,84,74,30.58,30.25,3,1,14,0.00
2013-2-22,30.0,26.0,23.0,28.0,23.7,20.0,95,90,86,30.25,29.84,3,1,7,0.08
2013-2-23,33.0,29.0,24.0,29.0,27.1,23.0,96,92,84,29.94,29.82,1,0,4,0.20
2013-2-24,36.0,29.5,20.0,30.0,26.5,19.0,96,89,70,30.11,29.94,2,0,5,0.23
2013-2-25,37.0,25.5,14.0,29.0,21.5,12.0,94,85,69,30.15,30.09,3,1,8,0.07
2013-2-26,37.0,24.8,11.0,32.0,22.0,9.0,94,89,79,30.14,29.99,4,1,11,0.01
2013-2-27,33.0,31.8,30.0,29.0,28.4,26.0,91,87,80,30.06,29.94,5,2,12,0.01
2013-2-28,30.0,26.7,25.0,26.0,22.2,18.0,90,83,73,30.33,30.06,4,2,11,0.00
2013-3-1,25.0,21.7,10.0,21.0,17.5,6.0,90,84,77,30.45,30.33,4,2,13,0.00
2013-3-2,27.0,13.9,2.0,16.0,7.8,-1.0,93,78,53,30.42,30.26,3,0,8,0.00
2013-3-3,28.0,13.6,-4.0,18.0,7.8,-8.0,90,78,54,30.27,30.15,3,0,8,0.00
2013-3-4,32.0,23.3,11.0,25.0,17.8,8.0,90,80,58,30.19,30.11,3,1,12,0.00
2013-3-5,30.0,26.5,22.0,25.0,20.6,16.0,90,79,66,30.32,30.10,4,1,13,0.00
2013-3-6,31.0,24.7,19.0,20.0,18.1,14.0,89,76,59,30.40,30.30,3,0,9,0.01
2013-3-7,30.0,21.3,11.0,21.0,16.1,8.0,91,81,64,30.47,30.38,3,0,7,0.01
2013-3-8,45.0,27.1,12.0,31.0,21.6,9.0,93,81,56,30.43,30.23,5,1,12,0.00
2013-3-9,36.0,31.6,25.0,35.0,30.6,24.0,98,96,93,30.22,29.79,1,0,5,0.28
2013-3-10,36.0,33.9,31.0,34.0,30.7,26.0,98,88,80,30.02,29.80,4,2,13,0.18
2013-3-11,31.0,27.2,24.0,27.0,24.3,22.0,92,89,81,29.97,29.77,6,2,14,0.01
2013-3-12,26.0,23.6,20.0,22.0,19.6,13.0,93,85,74,30.14,29.79,3,1,9,0.02
2013-3-13,35.0,23.9,14.0,14.0,10.5,7.0,77,58,33,30.35,30.14,2,0,6,0.03
2013-3-14,40.0,28.3,10.0,31.0,19.1,6.0,86,69,44,30.28,30.00,4,1,14,0.01
2013-3-15,36.0,27.1,19.0,30.0,21.1,16.0,89,78,68,30.08,29.98,4,2,12,0.00
2013-3-16,26.0,19.3,12.0,17.0,12.4,0.0,90,75,55,30.29,30.04,5,1,15,0.11
2013-3-17,25.0,13.7,0.0,16.0,5.8,-4.0,84,71,52,30.35,30.02,3,1,8,0.01
2013-3-18,33.0,26.8,21.0,30.0,21.3,12.0,90,80,56,30.03,29.54,5,2,14,0.08
2013-3-19,28.0,21.2,15.0,20.0,12.6,8.0,89,70,49,30.04,29.56,7,4,24,0.02
2013-3-20,22.0,16.8,11.0,12.0,9.2,6.0,86,72,60,30.15,30.04,4,2,11,0.01
2013-3-21,30.0,20.9,14.0,16.0,13.4,8.0,87,73,51,30.13,30.07,3,0,7,0.02
2013-3-22,33.0,21.9,9.0,27.0,17.2,6.0,91,82,70,30.15,30.08,3,0,7,0.01
2013-3-23,35.0,26.6,15.0,27.0,21.2,13.0,91,80,65,30.23,30.15,2,0,7,0.01
2013-3-24,32.0,27.8,23.0,29.0,23.8,19.0,91,85,78,30.19,30.07,4,1,14,0.01
2013-3-25,36.0,28.2,19.0,28.0,23.6,17.0,92,83,68,30.23,30.06,3,1,9,0.00
2013-3-26,41.0,34.2,29.0,29.0,26.3,24.0,88,73,51,30.29,30.22,1,0,5,0.00
2013-3-27,44.0,36.4,27.0,28.0,22.3,19.0,83,58,39,30.35,30.29,2,0,9,0.00
2013-3-28,46.0,32.9,19.0,28.0,20.8,16.0,87,65,36,30.37,30.29,2,0,5,0.00
2013-3-29,53.0,38.3,22.0,32.0,24.4,18.0,86,61,33,30.32,30.10,4,1,8,0.00
2013-3-30,49.0,41.9,36.0,42.0,36.0,-99.9,97,83,66,30.10,29.75,3,1,10,0.26
2013-3-31,41.0,35.1,27.0,33.0,24.1,13.0,81,65,48,30.02,29.68,5,2,13,0.01
2013-4-1,35.0,28.1,23.0,17.0,13.4,11.0,71,54,40,30.18,30.02,5,2,15,0.01
2013-4-2,38.0,29.1,21.0,19.0,15.4,11.0,77,58,34,30.37,30.18,3,1,9,0.00
2013-4-3,46.0,31.5,14.0,27.0,14.7,10.0,83,54,25,30.45,30.01,6,2,18,0.00
2013-4-4,47.0,42.0,34.0,34.0,27.5,20.0,72,57,40,30.16,29.94,6,2,17,0.00
2013-4-5,36.0,31.1,22.0,27.0,22.0,18.0,86,69,57,30.31,30.11,3,1,10,0.00
2013-4-6,37.0,33.5,30.0,35.0,31.8,25.0,97,94,76,30.11,29.62,1,0,5,0.28
2013-4-7,42.0,36.5,32.0,35.0,32.3,28.0,97,85,70,29.96,29.68,2,0,7,0.43
2013-4-8,37.0,34.4,32.0,36.0,33.1,29.0,98,96,89,30.08,29.83,2,0,5,0.34
2013-4-9,40.0,36.1,32.0,36.0,31.6,24.0,98,85,56,30.24,30.07,4,1,14,0.01
2013-4-10,39.0,34.4,29.0,31.0,27.3,22.0,91,76,55,30.28,30.13,5,2,12,0.00
2013-4-11,34.0,31.8,29.0,29.0,26.7,24.0,94,82,67,30.13,29.85,6,3,19,0.00
2013-4-12,33.0,30.3,27.0,31.0,28.5,25.0,95,93,89,29.85,29.76,5,3,13,0.15
2013-4-13,36.0,29.8,24.0,30.0,25.8,21.0,93,85,66,30.01,29.82,2,0,6,0.51
2013-4-14,40.0,29.2,16.0,32.0,25.3,14.0,96,86,66,30.05,29.71,3,1,12,0.30
2013-4-15,41.0,37.4,32.0,36.0,31.9,30.0,98,82,66,29.87,29.57,6,2,19,0.83
2013-4-16,46.0,39.4,31.0,34.0,30.6,27.0,88,72,51,30.40,29.86,4,1,14,0.05
2013-4-17,38.0,33.5,28.0,33.0,30.4,26.0,96,89,72,30.43,30.09,4,1,10,0.01
2013-4-18,34.0,33.1,32.0,33.0,32.1,31.0,97,97,96,30.10,29.41,5,2,13,0.14
2013-4-19,32.0,29.2,25.0,31.0,26.2,18.0,97,89,73,29.95,29.39,7,3,15,0.18
2013-4-20,36.0,25.4,15.0,23.0,16.5,11.0,91,71,42,30.41,29.96,3,0,5,0.73
2013-4-21,42.0,32.5,18.0,38.0,27.7,16.0,92,83,72,30.42,30.09,8,2,19,0.22
2013-4-22,46.0,39.0,33.0,39.0,32.3,27.0,96,79,50,30.27,30.10,2,1,8,0.10
2013-4-23,44.0,35.4,30.0,32.0,28.7,21.0,97,79,45,30.16,30.02,2,0,6,0.74
2013-4-24,49.0,36.3,28.0,34.0,25.8,19.0,96,68,38,30.03,29.88,4,1,14,0.06
2013-4-25,50.0,39.8,29.0,34.0,28.8,23.0,96,69,36,30.17,29.94,4,1,12,0.12
2013-4-26,65.0,47.4,37.0,43.0,36.7,28.0,91,68,43,30.15,30.02,3,1,8,0.07
2013-4-27,60.0,45.9,34.0,44.0,38.1,32.0,92,75,55,30.12,29.89,2,0,5,0.06
2013-4-28,73.0,59.5,41.0,55.0,47.1,37.0,92,67,39,29.89,29.65,7,2,17,0.01
2013-4-29,63.0,51.8,41.0,54.0,42.9,35.0,97,74,44,29.79,29.64,3,1,9,0.02
2013-4-30,81.0,57.7,39.0,61.0,43.6,31.0,94,65,29,29.85,29.40,7,2,22,0.00
2013-5-1,58.0,42.5,33.0,40.0,35.4,31.0,95,78,42,30.52,29.83,3,1,9,0.15
2013-5-2,34.0,32.4,31.0,32.0,31.1,30.0,97,95,89,30.60,30.50,2,0,8,0.23
2013-5-3,33.0,31.6,31.0,31.0,29.9,29.0,96,94,92,30.50,30.28,4,2,13,0.14
2013-5-4,37.0,34.9,32.0,35.0,33.5,31.0,96,95,91,30.29,30.24,3,1,10,0.88
2013-5-5,44.0,38.0,35.0,39.0,35.9,34.0,98,93,81,30.27,30.17,2,1,8,0.07
2013-5-6,57.0,43.3,31.0,47.0,38.6,31.0,98,85,65,30.19,30.04,2,0,5,0.01
2013-5-7,68.0,48.8,36.0,50.0,42.7,35.0,96,81,49,30.11,29.98,3,0,8,0.01
2013-5-8,69.0,54.0,40.0,55.0,45.8,38.0,95,76,53,30.06,29.97,2,0,7,0.02
2013-5-9,47.0,40.9,38.0,45.0,37.7,33.0,95,88,73,30.23,30.01,4,2,13,0.64
2013-5-10,47.0,39.1,36.0,36.0,30.7,-99.9,90,76,59,30.22,29.88,4,2,12,0.03
2013-5-11,46.0,41.0,37.0,36.0,29.8,-99.9,81,66,51,30.13,29.86,6,2,16,0.01
2013-5-12,52.0,42.5,34.0,29.0,24.9,20.0,73,51,28,30.18,30.10,3,2,9,0.01
2013-5-13,60.0,45.3,28.0,40.0,29.7,23.0,82,58,28,30.15,29.69,5,1,10,0.00
2013-5-14,71.0,52.5,38.0,52.0,42.0,35.0,88,68,50,29.78,29.36,3,0,9,0.01
2013-5-15,78.0,65.5,53.0,50.0,45.1,38.0,76,51,25,29.80,29.52,4,2,17,0.01
2013-5-16,60.0,48.8,44.0,47.0,25.2,-99.9,82,71,56,30.04,29.77,3,1,8,0.00
2013-5-17,54.0,46.5,42.0,45.0,36.6,-99.9,88,79,67,30.13,30.03,4,1,12,0.00
2013-5-18,56.0,48.8,44.0,55.0,46.6,40.0,97,92,79,30.07,29.87,2,0,5,0.95
2013-5-19,52.0,47.6,45.0,49.0,45.8,43.0,98,94,85,29.89,29.74,4,1,13,1.59
2013-5-20,47.0,44.1,41.0,46.0,43.0,40.0,98,97,92,29.79,29.60,4,2,14,2.36
2013-5-21,45.0,41.9,40.0,44.0,40.9,39.0,99,98,95,29.82,29.67,4,2,12,0.89
2013-5-22,46.0,43.0,41.0,45.0,41.8,40.0,98,97,88,30.09,29.81,4,2,12,0.79
2013-5-23,50.0,43.7,39.0,41.0,36.5,33.0,90,76,60,30.38,30.09,5,2,14,0.01
2013-5-24,64.0,47.8,31.0,42.0,37.2,30.0,95,70,40,30.46,30.28,3,0,8,0.00
2013-5-25,62.0,50.9,44.0,47.0,42.4,38.0,89,73,54,30.35,30.27,3,1,8,0.00
2013-5-26,64.0,50.2,38.0,47.0,40.6,36.0,93,71,45,30.34,30.16,3,1,11,0.00
2013-5-27,56.0,48.4,39.0,46.0,41.6,37.0,92,78,57,30.16,29.91,3,0,9,0.00
2013-5-28,64.0,53.8,49.0,51.0,46.2,43.0,85,76,61,29.92,29.72,3,0,9,0.00
2013-5-29,80.0,61.6,51.0,62.0,53.6,44.0,88,76,51,29.80,29.67,3,1,11,0.00
2013-5-30,83.0,61.9,55.0,67.0,58.4,53.0,98,89,56,29.74,29.54,5,0,14,0.57
2013-5-31,83.0,68.5,57.0,64.0,58.9,52.0,98,73,44,29.58,29.47,13,2,27,0.27
2013-6-1,66.0,54.4,45.0,59.0,51.4,44.0,97,90,77,29.90,29.52,4,1,10,0.15
2013-6-2,62.0,51.6,45.0,45.0,41.9,39.0,96,71,48,30.05,29.90,4,1,10,0.14
2013-6-3,65.0,52.4,39.0,45.0,39.4,29.0,95,66,28,30.11,30.01,3,0,8,0.00
2013-6-4,61.0,52.7,47.0,50.0,44.9,40.0,92,75,49,30.16,30.09,2,0,6,0.03
2013-6-5,56.0,51.0,48.0,54.0,49.6,47.0,98,95,85,30.14,30.04,1,0,7,0.97
2013-6-6,50.0,48.3,47.0,49.0,46.5,44.0,98,94,87,30.09,30.03,3,1,9,0.55
2013-6-7,68.0,54.3,44.0,51.0,46.0,40.0,98,77,38,30.08,29.93,2,0,6,0.01
2013-6-8,68.0,57.8,50.0,54.0,49.4,44.0,96,75,50,29.97,29.93,3,1,7,0.03
2013-6-9,60.0,53.4,46.0,58.0,51.1,44.0,96,92,83,29.99,29.85,1,0,5,0.23
2013-6-10,72.0,59.7,52.0,63.0,56.0,51.0,97,88,70,29.85,29.78,2,0,6,0.01
2013-6-11,79.0,67.9,57.0,65.0,58.6,54.0,97,75,46,29.84,29.78,2,0,9,0.00
2013-6-12,80.0,64.9,51.0,59.0,54.6,50.0,95,72,37,29.85,29.76,3,0,10,0.00
2013-6-13,70.0,61.6,53.0,54.0,51.5,47.0,89,71,49,30.11,29.85,2,1,8,0.00
2013-6-14,70.0,57.5,47.0,56.0,50.0,45.0,94,77,53,30.14,29.94,3,0,7,0.00
2013-6-15,75.0,61.6,55.0,67.0,57.0,48.0,94,85,74,29.93,29.76,1,0,7,0.01
2013-6-16,82.0,66.3,58.0,61.0,55.6,51.0,96,72,36,29.84,29.75,5,1,18,0.23
2013-6-17,58.0,51.6,44.0,57.0,48.9,42.0,97,90,77,30.09,29.80,3,1,10,0.23
2013-6-18,69.0,54.0,38.0,49.0,43.2,37.0,97,71,38,30.18,30.05,2,0,8,0.01
2013-6-19,81.0,65.5,44.0,60.0,52.6,42.0,93,66,43,30.08,29.91,3,1,9,0.00
2013-6-20,70.0,62.3,58.0,65.0,59.4,56.0,97,90,75,30.03,29.95,2,0,5,0.41
2013-6-22,57.0,54.0,51.0,56.0,52.8,50.0,98,96,92,30.05,29.92,2,0,4,1.02
2013-6-23,83.0,65.2,52.0,70.0,59.5,51.0,98,84,56,29.92,29.70,5,1,16,0.01
2013-6-24,85.0,74.3,63.0,65.0,62.8,59.0,95,71,44,29.85,29.73,4,1,13,0.01
2013-6-25,86.0,74.5,65.0,72.0,67.0,62.0,96,79,58,29.78,29.68,2,0,7,0.00
2013-6-26,78.0,67.6,63.0,71.0,65.0,61.0,97,91,79,29.72,29.59,2,0,9,0.31
2013-6-27,86.0,73.2,62.0,68.0,63.2,58.0,99,73,43,29.74,29.61,4,1,13,0.02
2013-6-28,70.0,64.8,59.0,65.0,60.4,57.0,92,86,69,29.76,29.61,2,1,8,0.01
2013-6-29,70.0,63.4,57.0,59.0,55.6,51.0,95,77,55,29.95,29.74,3,1,10,0.01
2013-6-30,82.0,67.1,49.0,59.0,52.5,47.0,94,65,31,30.06,29.95,1,0,5,0.00
2013-7-1,67.0,60.0,49.0,57.0,52.5,45.0,94,77,58,30.22,30.06,2,1,10,0.00
2013-7-2,71.0,58.2,43.0,56.0,46.1,37.0,95,68,29,30.19,30.08,2,0,6,0.00
2013-7-3,76.0,60.1,43.0,60.0,50.5,41.0,93,73,42,30.09,29.94,2,0,5,0.00
2013-7-4,87.0,71.4,52.0,65.0,58.9,50.0,95,68,43,29.95,29.82,4,1,12,0.00
2013-7-5,88.0,79.1,69.0,65.0,62.1,60.0,75,58,39,29.85,29.73,6,2,17,0.00
2013-7-6,89.0,77.5,72.0,74.0,66.2,62.0,92,69,52,29.81,29.76,4,2,12,0.02
2013-7-7,81.0,65.2,54.0,72.0,62.4,53.0,98,91,70,29.95,29.76,4,1,10,1.14
2013-7-8,67.0,58.4,53.0,62.0,56.0,52.0,98,93,79,30.00,29.87,2,0,6,0.25
2013-7-9,65.0,58.7,55.0,64.0,57.7,54.0,98,97,95,29.98,29.75,1,0,5,0.27
2013-7-10,77.0,67.0,58.0,63.0,55.9,-99.9,96,72,48,29.97,29.80,3,1,10,0.01
2013-7-11,83.0,68.6,55.0,64.0,58.4,53.0,95,73,40,30.08,29.94,3,0,9,0.00
2013-7-12,87.0,73.6,59.0,67.0,61.9,57.0,93,69,44,29.99,29.85,6,2,17,0.00
2013-7-13,83.0,75.7,66.0,71.0,66.0,61.0,91,72,60,30.04,29.86,4,1,12,0.04
2013-7-14,83.0,73.7,67.0,70.0,66.7,64.0,96,80,63,30.16,30.04,3,0,10,0.11
2013-7-15,81.0,69.8,63.0,71.0,65.8,62.0,96,87,71,30.21,30.14,2,0,6,0.01
2013-7-16,92.0,79.1,64.0,77.0,70.4,63.0,97,77,56,30.15,30.04,4,1,12,0.02
2013-7-17,92.0,80.9,70.0,74.0,71.0,68.0,92,74,50,30.14,30.00,6,1,17,0.02
2013-7-18,94.0,81.2,68.0,78.0,71.1,67.0,97,74,51,30.03,29.56,5,2,17,0.02
2013-7-19,83.0,76.2,68.0,73.0,65.2,57.0,94,71,45,29.75,29.52,3,1,11,0.47
2013-7-20,68.0,62.6,54.0,61.0,51.0,-99.9,82,68,52,30.00,29.74,3,1,8,0.28
2013-7-21,70.0,59.1,48.0,60.0,52.3,46.0,93,79,56,30.00,29.83,3,1,8,0.00
2013-7-22,85.0,68.8,54.0,72.0,60.6,52.0,94,77,54,29.83,29.55,5,1,14,0.00
2013-7-23,72.0,63.4,57.0,56.0,52.5,50.0,88,69,47,29.99,29.73,2,1,9,0.00
2013-7-24,76.0,65.1,52.0,59.0,54.8,50.0,93,71,50,30.03,29.91,4,1,10,0.00
2013-7-25,82.0,68.4,60.0,66.0,60.4,56.0,97,77,48,29.91,29.79,3,1,10,0.98
2013-7-26,60.0,55.8,50.0,59.0,54.5,47.0,98,96,88,30.04,29.82,3,1,10,0.21
2013-7-27,58.0,52.8,48.0,52.0,48.9,45.0,93,86,75,30.01,29.85,2,1,11,0.13
2013-7-28,65.0,57.6,52.0,58.0,53.7,50.0,97,87,74,30.02,29.88,1,0,7,0.13
2013-7-29,75.0,62.7,50.0,61.0,53.9,48.0,97,75,53,30.09,30.01,2,0,7,0.01
2013-7-30,73.0,64.8,56.0,63.0,59.8,54.0,94,84,69,30.10,30.00,3,0,11,0.00
2013-7-31,78.0,68.0,61.0,66.0,59.5,53.0,97,76,44,30.00,29.86,4,1,13,0.03
2013-8-1,77.0,66.5,57.0,61.0,56.2,52.0,87,71,49,29.92,29.78,3,1,10,0.01
2013-8-2,76.0,65.6,56.0,61.0,56.6,53.0,97,75,50,29.97,29.78,2,0,10,0.19
2013-8-3,74.0,63.3,53.0,59.0,55.0,50.0,91,75,54,30.16,29.97,1,0,7,0.01
2013-8-4,73.0,61.9,49.0,60.0,53.6,48.0,96,76,52,30.22,30.01,2,0,7,0.00
2013-8-5,72.0,62.7,54.0,66.0,60.0,52.0,97,91,81,30.01,29.74,2,0,7,0.54
2013-8-6,76.0,67.6,62.0,65.0,62.6,61.0,98,85,61,29.76,29.67,2,0,8,0.51
2013-8-7,74.0,66.3,57.0,63.0,56.0,51.0,93,72,46,29.97,29.67,3,0,9,0.00
2013-8-8,71.0,61.8,56.0,62.0,56.0,52.0,93,82,66,30.01,29.92,1,0,6,0.00
2013-8-9,71.0,63.6,56.0,58.0,55.1,53.0,94,75,55,30.05,29.92,3,0,10,0.00
2013-8-10,75.0,64.8,54.0,60.0,55.8,52.0,93,75,48,30.13,30.03,1,0,7,0.00
2013-8-11,76.0,64.9,57.0,63.0,57.4,53.0,95,78,53,30.05,29.95,2,0,7,0.00
2013-8-12,75.0,62.9,52.0,63.0,56.6,50.0,95,81,57,30.06,29.93,3,1,10,0.00
2013-8-13,67.0,56.8,48.0,57.0,49.3,-99.9,95,80,58,30.18,30.06,2,0,7,0.00
2013-8-14,72.0,60.3,47.0,55.0,49.8,45.0,95,71,44,30.20,30.05,1,0,5,0.00
2013-8-15,78.0,60.8,53.0,61.0,43.6,-99.9,91,69,44,30.07,30.02,2,0,5,0.00
2013-8-16,81.0,66.7,52.0,62.0,53.0,-99.9,95,69,40,30.11,30.06,4,0,8,0.00
2013-8-17,82.0,70.2,57.0,62.0,56.9,-99.9,92,66,45,30.15,30.02,4,1,12,0.00
2013-8-18,82.0,70.6,59.0,63.0,58.6,55.0,89,68,48,30.10,29.92,4,1,13,0.00
2013-8-19,87.0,71.2,67.0,72.0,53.8,-99.9,87,71,58,29.94,29.81,4,1,12,0.00
2013-8-20,89.0,78.1,69.0,74.0,68.2,-99.9,90,75,59,29.86,29.74,3,1,11,0.00
2013-8-21,84.0,76.9,63.0,77.0,69.3,59.0,94,78,48,29.94,29.72,4,1,11,0.14
2013-8-22,79.0,68.7,56.0,60.0,54.8,49.0,91,64,38,30.11,29.94,2,0,7,0.14
2013-8-23,79.0,64.2,49.0,65.0,56.9,47.0,95,79,58,30.16,30.02,1,0,6,0.00
2013-8-24,86.0,72.7,59.0,72.0,63.5,-99.9,96,76,56,30.08,29.82,6,2,16,0.02
2013-8-25,95.0,85.3,79.0,78.0,74.1,71.0,80,70,54,29.89,29.80,5,2,21,0.01
2013-8-26,86.0,75.6,69.0,79.0,72.7,68.0,98,91,70,29.90,29.80,2,0,8,3.00
2013-8-27,82.0,73.8,71.0,75.0,71.7,70.0,99,94,76,29.83,29.75,2,0,5,0.99
2013-8-28,82.0,77.8,73.0,75.0,73.0,71.0,97,86,75,29.98,29.94,0,0,3,0.01
2013-8-29,82.0,72.0,66.0,75.0,69.9,65.0,99,94,78,29.98,29.70,4,0,14,1.02
2013-8-30,77.0,71.0,63.0,71.0,67.1,62.0,97,88,74,29.91,29.74,2,0,9,0.01
2013-8-31,84.0,69.4,58.0,71.0,62.8,-99.9,98,84,61,29.89,29.62,3,0,12,0.20
2013-9-1,76.0,67.3,60.0,67.0,62.4,56.0,97,85,68,29.92,29.60,3,0,13,0.20
2013-9-2,65.0,57.4,51.0,56.0,51.8,50.0,95,82,64,30.06,29.91,2,0,8,0.00
2013-9-3,77.0,63.5,49.0,61.0,55.1,48.0,96,76,58,30.04,29.88,3,1,10,0.00
2013-9-4,68.0,62.9,54.0,62.0,56.0,52.0,95,79,68,30.16,29.91,4,1,10,0.00
2013-9-5,73.0,58.2,47.0,61.0,53.9,46.0,97,87,64,30.27,30.10,1,0,4,0.00
2013-9-6,85.0,70.2,53.0,73.0,64.7,52.0,96,84,66,30.10,29.80,4,1,9,0.00
2013-9-7,78.0,66.9,54.0,71.0,61.8,-99.9,95,86,77,30.08,29.79,4,1,13,0.00
2013-9-8,69.0,60.2,49.0,62.0,56.3,48.0,97,88,71,30.13,29.90,2,0,6,0.00
2013-9-9,72.0,65.8,62.0,69.0,64.1,60.0,98,94,88,29.90,29.61,2,0,15,0.14
2013-9-10,77.0,70.2,65.0,69.0,67.0,64.0,98,91,74,29.87,29.66,4,1,10,0.06
2013-9-11,77.0,67.4,59.0,67.0,61.1,56.0,96,82,52,29.98,29.86,3,0,10,0.10
2013-9-12,65.0,57.9,51.0,57.0,52.4,47.0,97,83,61,30.21,29.97,2,0,8,0.10
2013-9-13,66.0,54.3,44.0,53.0,47.6,43.0,96,80,51,30.27,30.07,1,0,4,0.01
2013-9-14,71.0,57.7,45.0,58.0,49.8,-99.9,96,78,58,30.07,29.89,4,1,10,0.01
2013-9-15,57.0,52.6,41.0,56.0,49.9,40.0,97,90,72,30.32,29.93,3,0,10,0.18
2013-9-16,64.0,49.3,37.0,50.0,43.8,36.0,98,83,56,30.45,30.28,1,0,6,0.01
2013-9-17,71.0,54.8,40.0,53.0,46.4,39.0,97,76,46,30.29,29.97,4,1,11,0.01
2013-9-18,65.0,60.3,59.0,64.0,57.3,53.0,97,90,78,29.97,29.73,2,0,8,0.01
2013-9-19,76.0,66.5,59.0,72.0,65.0,58.0,99,95,86,29.74,29.58,1,0,7,0.15
2013-9-20,68.0,60.4,53.0,67.0,56.1,48.0,98,86,70,29.81,29.63,2,0,10,0.02
2013-9-21,59.0,51.0,42.0,49.0,43.3,-99.9,95,78,57,29.98,29.81,2,0,8,0.01
2013-9-22,63.0,48.6,35.0,50.0,43.3,34.0,97,84,56,30.08,29.96,2,0,11,0.00
2013-9-23,73.0,56.9,45.0,56.0,49.5,44.0,95,78,52,30.03,29.93,3,1,9,0.00
2013-9-24,73.0,55.4,43.0,59.0,50.8,42.0,98,86,58,30.02,29.93,1,0,5,0.00
2013-9-25,69.0,55.7,43.0,61.0,52.3,42.0,98,90,68,30.00,29.92,2,0,6,0.01
2013-9-26,70.0,57.3,45.0,61.0,53.8,44.0,99,89,64,30.02,29.92,2,0,7,0.01
2013-9-27,78.0,68.3,55.0,64.0,58.2,53.0,94,72,52,29.97,29.83,4,1,15,0.00
2013-9-28,77.0,63.9,52.0,64.0,54.3,-99.9,93,74,51,29.85,29.52,7,2,19,0.11
2013-9-29,72.0,58.0,44.0,53.0,47.9,43.0,96,72,39,29.92,29.80,2,1,10,0.01
2013-9-30,75.0,65.0,57.0,57.0,52.0,48.0,77,63,51,29.80,29.57,5,2,17,0.00
2013-10-1,65.0,60.7,57.0,41.0,39.8,39.0,53,46,39,29.87,29.77,2,1,9,0.00
2013-10-2,75.0,60.5,48.0,54.0,44.0,39.0,96,58,28,30.02,29.87,3,0,8,0.28
2013-10-3,59.0,55.0,52.0,55.0,53.2,51.0,98,94,83,29.98,29.91,2,0,8,0.61
2013-10-4,56.0,54.6,52.0,54.0,52.0,49.0,96,91,84,30.10,29.98,4,2,14,0.22
2013-10-5,53.0,52.2,51.0,52.0,51.1,49.0,98,96,93,30.08,29.73,4,2,12,1.46
2013-10-6,54.0,51.1,45.0,54.0,49.9,43.0,99,96,93,29.76,29.65,2,0,11,0.85
2013-10-7,61.0,49.2,41.0,50.0,44.2,40.0,98,84,55,29.98,29.75,2,0,7,0.02
2013-10-8,75.0,57.6,38.0,51.0,44.5,37.0,98,67,38,30.00,29.81,5,2,18,0.01
2013-10-9,76.0,64.9,54.0,56.0,51.5,48.0,85,63,48,30.04,29.89,4,2,14,0.00
2013-10-10,75.0,56.6,45.0,55.0,49.0,43.0,96,79,39,30.06,29.93,3,0,9,0.00
2013-10-11,76.0,60.6,45.0,60.0,52.4,44.0,98,77,50,29.97,29.67,6,1,18,0.00
2013-10-12,66.0,58.0,49.0,57.0,47.6,-99.9,89,70,58,30.02,29.64,5,2,20,0.00
2013-10-13,58.0,49.3,38.0,47.0,40.4,34.0,89,73,42,30.40,30.02,2,0,11,0.00
2013-10-14,53.0,44.2,34.0,46.0,39.5,32.0,95,84,68,30.43,30.16,2,0,9,0.00
2013-10-15,51.0,49.0,47.0,50.0,46.8,42.0,97,93,71,30.17,29.73,4,1,12,1.66
2013-10-16,52.0,45.3,36.0,46.0,41.5,35.0,97,87,63,29.91,29.80,3,0,10,0.47
2013-10-17,52.0,44.3,34.0,46.0,40.9,33.0,97,88,72,29.87,29.78,1,0,5,0.25
2013-10-18,50.0,44.7,36.0,45.0,39.8,31.0,97,84,49,29.91,29.80,1,0,6,0.54
2013-10-19,44.0,39.5,35.0,41.0,36.8,-99.9,96,92,84,29.83,29.67,2,0,7,0.17
2013-10-20,44.0,36.9,32.0,39.0,35.1,31.0,97,93,76,29.78,29.73,2,0,6,0.28
2013-10-21,37.0,35.0,32.0,36.0,32.2,29.0,96,89,76,29.84,29.75,4,2,17,0.20
2013-10-22,39.0,36.8,33.0,35.0,32.0,29.0,92,83,73,30.01,29.84,2,0,8,0.08
2013-10-23,39.0,35.6,32.0,33.0,28.7,25.0,90,77,57,30.03,29.94,3,0,10,0.01
2013-10-24,41.0,37.7,34.0,34.0,31.5,29.0,90,79,65,30.24,30.03,2,0,9,0.00
2013-10-25,52.0,43.9,31.0,41.0,34.3,28.0,90,70,54,30.24,29.64,5,2,17,0.01
2013-10-26,50.0,43.2,40.0,39.0,33.7,-99.9,85,71,62,30.02,29.67,3,0,12,0.01
2013-10-27,51.0,41.4,35.0,36.0,33.0,28.0,84,72,57,30.25,29.78,4,1,13,0.01
2013-10-28,40.0,34.1,26.0,33.0,27.3,-99.9,92,79,61,30.55,30.24,4,1,11,0.06
2013-10-29,38.0,31.4,24.0,35.0,28.9,22.0,96,91,77,30.53,30.21,1,0,4,0.05
2013-10-30,44.0,40.5,36.0,43.0,39.4,35.0,97,96,94,30.21,29.72,0,0,3,0.07
2013-10-31,48.0,45.4,44.0,47.0,44.4,43.0,98,98,97,29.73,29.32,1,0,6,0.11
2013-11-1,45.0,42.7,40.0,44.0,41.1,38.0,98,94,90,29.81,29.32,2,0,7,0.11
2013-11-2,45.0,38.1,29.0,38.0,33.3,-99.9,94,86,73,30.15,29.81,1,0,5,0.01
2013-11-3,51.0,37.8,26.0,37.0,31.3,24.0,96,79,59,30.24,30.06,4,1,14,0.00
2013-11-4,46.0,44.8,38.0,44.0,39.5,34.0,93,82,68,30.11,29.87,5,3,17,0.15
2013-11-5,47.0,38.8,34.0,34.0,32.2,29.0,93,78,54,30.25,30.07,3,0,9,0.10
2013-11-6,40.0,35.1,33.0,34.0,29.3,24.0,95,80,63,30.15,30.00,3,1,11,0.20
2013-11-7,38.0,33.5,30.0,29.0,25.0,20.0,82,71,60,30.21,30.15,3,1,7,0.01
2013-11-8,40.0,33.6,24.0,35.0,27.4,20.0,90,78,64,30.23,29.69,3,1,9,0.01
2013-11-9,40.0,37.9,38.0,37.0,33.8,-99.9,95,88,83,30.05,29.61,5,2,15,0.09
2013-11-10,44.0,39.0,35.0,35.0,31.0,28.0,93,74,55,30.29,30.07,4,2,13,0.01
2013-11-11,34.0,25.8,22.0,32.0,16.9,13.0,93,69,57,30.70,30.11,4,2,13,0.01
2013-11-12,30.0,23.5,17.0,14.0,12.0,9.0,79,62,43,30.76,30.45,5,2,12,0.00
2013-11-13,51.0,37.0,24.0,35.0,24.9,13.0,77,62,47,30.44,29.81,7,3,16,0.00
2013-11-14,47.0,41.6,38.0,37.0,35.0,34.0,85,77,66,29.83,29.74,2,0,8,0.00
2013-11-15,54.0,42.6,36.0,40.0,36.4,33.0,90,79,55,29.86,29.72,3,1,9,0.00
2013-11-16,48.0,44.0,41.0,44.0,38.6,-99.9,99,84,75,29.72,29.30,5,1,12,0.56
2013-11-17,46.0,42.6,35.0,45.0,40.4,29.0,100,92,79,29.60,29.28,6,2,18,0.03
2013-11-18,35.0,31.3,29.0,29.0,23.7,22.0,79,73,70,30.29,29.62,6,3,23,0.00
2013-11-19,43.0,33.8,22.0,26.0,22.9,19.0,90,66,47,30.35,30.00,7,2,16,0.00
2013-11-20,46.0,42.4,37.0,34.0,28.0,23.0,87,58,43,30.09,29.97,7,3,18,0.00
2013-11-21,38.0,33.9,27.0,36.0,29.7,20.0,92,84,75,30.52,30.08,4,1,10,0.00
2013-11-22,34.0,25.4,17.0,21.0,16.3,9.0,83,70,38,30.60,30.40,5,2,14,0.00
2013-11-23,17.0,14.3,9.0,10.0,4.9,-99.9,77,68,55,30.83,30.60,5,2,16,0.00
2013-11-24,31.0,18.4,7.0,20.0,8.4,2.0,82,65,51,30.75,29.89,8,3,21,0.00
2013-11-25,40.0,34.4,31.0,30.0,25.8,20.0,83,70,63,29.99,29.81,7,3,18,0.00
2013-11-26,30.0,20.4,17.0,23.0,13.3,8.0,88,74,56,30.36,30.01,5,2,18,0.00
2013-11-27,25.0,22.5,20.0,20.0,17.8,15.0,92,82,70,30.38,30.19,3,1,9,0.00
2013-11-28,28.0,23.4,20.0,22.0,19.7,18.0,93,86,70,30.54,30.17,4,1,10,0.03
2013-11-29,29.0,22.1,13.0,22.0,17.1,11.0,93,81,69,30.60,30.25,5,1,11,0.01
2013-11-30,36.0,31.2,28.0,30.0,24.4,-99.9,87,78,71,30.25,30.07,5,1,13,0.03
2013-12-1,35.0,32.4,30.0,31.0,28.2,25.0,92,84,78,30.21,30.01,3,0,7,0.01
2013-12-2,35.0,31.5,28.0,33.0,28.4,24.0,97,88,79,30.01,29.80,0,0,4,0.01
2013-12-3,33.0,31.1,29.0,32.0,29.7,26.0,98,95,89,29.97,29.80,2,0,15,0.01
2013-12-4,33.0,31.2,29.0,33.0,30.6,27.0,99,97,92,29.96,29.38,3,1,9,0.00
2013-12-5,32.0,14.9,5.0,32.0,11.2,0.0,99,85,75,30.28,29.42,5,3,14,0.00
2013-12-6,9.0,2.9,-2.0,2.0,-2.0,-6.0,83,79,70,30.62,30.27,4,2,14,0.00
2013-12-7,2.0,-2.6,-9.0,-3.0,-9.1,-99.9,83,76,69,30.74,30.63,4,2,12,0.00
2013-12-8,9.0,0.1,-9.0,7.0,-3.4,-13.0,91,85,80,30.70,30.13,1,0,5,0.00